Location: Lango�lan
(48.1202°N, 3.2340°W)
Time: 07:59:13
(UTC+00:00)

SL-16 R/B - Pass Details

Date: 23 October 2019
Orbit: 840 x 850 km, 71.0° (Epoch: 16 November)

Event Time Altitude Azimuth Distance (km) Brightness Sun altitude
Exits shadow 04:53:06 13° 209° (SSW) 2,240 4.1 -19.1°
Maximum altitude 04:58:11 84° 298° (WNW) 856 2.1 -18.2°
Drops below altitude 10° 05:03:54 10° 27° (NNE) 2,479 5.0 -17.3°
Sets 05:06:22 0° 28° (NNE) 3,420 5.8 -16.9°
